Waarnemingen

Advertentie
Mijn weer
Zwiesel, Duitsland (10796): temperatuur & dauwpunt: 13.07.2018 15:00:00 - 19.07.2018 15:00:00 (CEST)Zwiesel, Duitsland (10796): temperatuur 5cm & temperatuur -5cm: 13.07.2018 15:00:00 - 19.07.2018 15:00:00 (CEST)Zwiesel, Duitsland (10796): temperatuur -20cm & temperatuur -100cm: 13.07.2018 15:00:00 - 19.07.2018 15:00:00 (CEST)Zwiesel, Duitsland (10796): windsnelheid & windstoten: 13.07.2018 15:00:00 - 19.07.2018 15:00:00 (CEST)Zwiesel, Duitsland (10796): windrichting: 13.07.2018 15:00:00 - 19.07.2018 15:00:00 (CEST)Zwiesel, Duitsland (10796): luchtdruk: 13.07.2018 15:00:00 - 19.07.2018 15:00:00 (CEST)Zwiesel, Duitsland (10796): zicht: 13.07.2018 15:00:00 - 19.07.2018 15:00:00 (CEST)Zwiesel, Duitsland (10796): Zonneschijnduur: 13.07.2018 15:00:00 - 19.07.2018 15:00:00 (CEST)Zwiesel, Duitsland (10796): neerslag: 13.07.2018 15:00:00 - 19.07.2018 15:00:00 (CEST)
Datum & Tijd tt [°C] td [°C] tt 5cm [°C] tt -5cm [°C] tt -20cm [°C] tt -100cm [°C] ff [km/u] ff [kn] fx [km/u] fx [kn] dd ppp [hPa] vv [km] sd [min] rr [mm]
19.07.2018 15:00:00 25,2 9,1 30,6 29,1 18,9 15,2 10 5 22 12 NNW 1013,9 24 60 0,0
19.07.2018 14:00:00 24,5 7,5 29,4 27,7 18,2 15,2 10 5 19 11 WNW 1014,3 28 60 0,0
19.07.2018 13:00:00 23,8 8,4 29,2 25,9 17,6 15,2 9 5 18 10 NW 1014,7 28 60 0,0
19.07.2018 12:00:00 23,4 8,6 28,1 23,7 17,2 15,2 6 3 17 9 NW 1014,9 25 60 0,0
19.07.2018 11:00:00 22,2 9,3 27,0 21,3 16,9 15,2 4 2 14 8 W 1015,5 33 60 0,0
19.07.2018 10:00:00 21,2 9,9 23,8 19,0 16,9 15,2 5 3 16 9 ZZW 1015,8 35 60 0,0
19.07.2018 09:00:00 19,4 10,2 22,4 17,1 17,0 15,2 6 3 8 5 WZW 1016,2 20 60 0,0
19.07.2018 08:00:00 16,0 9,1 18,3 15,6 17,3 15,2 3 2 5 3 WZW 1017,2 31 60 0,0
19.07.2018 07:00:00 12,7 8,7 13,5 15,0 17,6 15,2 4 2 9 5 WZW 1018,2 25 28 0,0
19.07.2018 06:00:00 11,2 8,2 8,1 15,5 17,9 15,2 3 2 14 8 ZZO 1018,3 28 0 0,0
19.07.2018 05:00:00 13,7 8,8 11,4 16,1 18,2 15,2 7 4 16 9 NO 1017,4 32 0 0,0
19.07.2018 04:00:00 14,3 9,0 9,5 16,8 18,5 15,2 4 2 14 8 O 1017,1 30 0 0,0
19.07.2018 03:00:00 15,9 9,1 12,7 17,5 18,9 15,2 9 5 17 9 O 1016,7 35 0 0,0
19.07.2018 02:00:00 16,2 9,2 13,9 18,3 19,1 15,2 9 5 23 12 NO 1016,7 37 0 0,0
19.07.2018 01:00:00 17,8 9,2 15,4 19,1 19,4 15,2 14 7 27 14 N 1016,1 35 0 0,0
19.07.2018 00:00:00 16,4 10,2 12,9 20,0 19,6 15,2 5 3 11 6 NO 1016,3 34 0 0,0
18.07.2018 23:00:00 16,5 10,6 13,2 21,1 19,8 15,2 3 1 10 5 Z 1015,9 34 0 0,0
18.07.2018 22:00:00 19,3 9,9 15,7 22,4 19,8 15,2 5 3 22 12 NO 1014,9 38 0 0,0
18.07.2018 21:00:00 21,9 9,6 20,0 23,7 19,7 15,2 11 6 22 12 NW 1013,7 39 36 0,0
18.07.2018 20:00:00 24,1 8,5 23,0 24,7 19,5 15,2 15 8 24 13 NW 1013,0 30 59 0,0
18.07.2018 19:00:00 24,4 10,2 26,4 25,2 19,1 15,2 9 5 34 18 NNW 1012,8 39 30 0,0
18.07.2018 18:00:00 25,0 8,9 27,4 25,4 18,8 15,2 18 10 39 21 WNW 1012,8 30 49 0,0
18.07.2018 17:00:00 24,9 10,0 27,4 25,3 18,3 15,2 17 9 41 22 NW 1013,0 33 55 0,0
18.07.2018 16:00:00 25,0 10,5 28,0 24,4 17,9 15,2 12 7 29 16 NW 1013,1 40 28 0,0
18.07.2018 15:00:00 24,3 9,5 25,9 23,6 17,5 15,2 15 8 34 18 NW 1013,4 40 33 0,0
18.07.2018 14:00:00 24,2 10,0 28,4 22,4 17,2 15,1 23 12 37 20 NW 1013,7 34 38 0,0
18.07.2018 13:00:00 23,1 11,6 25,7 21,3 16,9 15,1 8 4 15 8 NW 1014,2 27 8 0,0
18.07.2018 12:00:00 22,3 12,1 24,3 21,2 16,5 15,1 9 5 16 9 W 1014,6 28 22 0,0
18.07.2018 11:00:00 22,7 11,0 24,6 20,0 16,3 15,1 5 3 10 5 W 1014,6 32 43 0,0
18.07.2018 10:00:00 20,8 11,9 24,7 18,1 16,3 15,1 5 3 7 4 ZW 1015,0 21 59 0,0
18.07.2018 09:00:00 17,6 12,1 20,7 16,1 16,4 15,1 3 2 5 3 W 1015,8 22 60 0,0
18.07.2018 08:00:00 14,0 10,4 14,3 14,7 16,6 15,1 0 0 4 2 N 1016,6 20 56 0,0
18.07.2018 07:00:00 9,8 8,9 9,7 14,4 16,9 15,1 2 1 6 3 NW 1017,5 8 0 0,0
18.07.2018 06:00:00 9,8 9,3 8,7 14,6 17,2 15,1 0 0 5 3 N 1017,1 8 0 0,0
18.07.2018 05:00:00 10,0 9,5 7,9 15,1 17,6 15,1 2 1 4 2 ZW 1016,7 14 0 0,0
18.07.2018 04:00:00 10,3 9,6 8,4 15,8 17,9 15,1 3 2 6 4 NNW 1016,5 16 0 0,0
18.07.2018 03:00:00 10,9 10,0 8,9 16,4 18,2 15,1 3 2 5 3 ONO 1016,3 20 0 0,0
18.07.2018 02:00:00 11,8 10,2 9,7 17,2 18,5 15,1 3 1 8 5 WNW 1016,0 18 0 0,0
18.07.2018 01:00:00 12,9 10,3 10,4 18,0 18,8 15,1 3 2 8 5 NNW 1015,6 28 0 0,0
18.07.2018 00:00:00 14,3 10,8 11,6 19,0 19,0 15,1 3 2 7 4 NNO 1015,0 30 0 0,0
17.07.2018 23:00:00 16,5 10,8 14,3 19,9 19,2 15,1 8 4 12 6 O 1014,1 41 0 0,0
17.07.2018 22:00:00 18,3 10,7 14,7 21,0 19,2 15,1 4 2 12 6 Z 1013,6 45 0 0,0
17.07.2018 21:00:00 20,8 10,3 19,0 22,1 19,2 15,1 6 4 13 7 ZZW 1012,5 46 36 0,0
17.07.2018 20:00:00 21,3 10,7 19,7 22,9 19,0 15,1 3 2 32 17 W 1011,8 63 6 0,0
17.07.2018 19:00:00 23,5 9,7 24,7 23,8 18,8 15,1 15 8 34 18 NW 1011,5 48 18 0,0
17.07.2018 18:00:00 24,7 8,5 25,0 24,2 18,5 15,1 18 10 33 18 W 1010,5 34 55 0,0
17.07.2018 17:00:00 23,4 9,3 23,1 24,1 18,2 15,1 12 7 35 19 NNW 1011,1 52 24 0,0
17.07.2018 16:00:00 24,3 11,2 26,7 23,7 17,9 15,1 14 8 33 18 NNW 1011,0 45 50 0,0
17.07.2018 15:00:00 23,4 12,0 26,1 22,4 17,6 15,1 14 7 29 16 W 1011,5 33 31 0,1
17.07.2018 14:00:00 22,3 10,3 23,8 22,4 17,2 15,1 18 10 32 17 NW 1012,2 42 11 0,0
17.07.2018 13:00:00 21,5 10,6 21,9 22,3 16,8 15,1 18 10 31 17 WNW 1012,7 39 23 0,0
17.07.2018 12:00:00 22,0 10,5 24,0 21,8 16,4 15,1 12 7 28 15 W 1012,4 37 33 0,0
17.07.2018 11:00:00 22,6 11,5 26,3 20,4 16,2 15,1 8 5 16 9 W 1012,1 30 59 0,0
17.07.2018 10:00:00 19,8 12,5 23,0 18,5 16,1 15,1 7 4 11 6 ZZW 1013,0 34 59 0,0
17.07.2018 09:00:00 17,6 11,8 21,5 16,4 16,1 15,1 4 2 7 4 ZW 1013,4 22 50 0,0
17.07.2018 08:00:00 13,4 11,4 14,7 15,3 16,3 15,1 2 1 4 2 N 1014,4 17 11 0,0
17.07.2018 07:00:00 12,1 10,9 12,1 15,0 16,5 15,1 2 1 4 2 WZW 1014,7 10 0 0,0
17.07.2018 06:00:00 11,2 10,6 11,2 15,1 16,7 15,1 2 1 3 2 ZW 1014,8 7 0 0,0
17.07.2018 05:00:00 11,4 10,7 11,3 15,4 16,9 15,1 0 0 3 2 N 1014,4 10 0 0,0
17.07.2018 04:00:00 11,4 10,7 11,5 15,5 17,2 15,1 2 1 5 3 ZZO 1014,2 9 0 0,0
17.07.2018 03:00:00 11,2 10,5 11,0 15,6 17,5 15,1 3 2 7 4 ZO 1014,2 13 0 0,0
17.07.2018 02:00:00 10,7 10,0 9,1 16,2 17,8 15,1 3 2 5 3 N 1014,4 11 0 0,0
17.07.2018 01:00:00 11,3 10,4 9,6 16,9 18,1 15,1 2 1 7 4 WZW 1014,4 12 0 0,0
17.07.2018 00:00:00 13,0 11,2 11,5 17,7 18,4 15,1 8 4 14 7 NNO 1013,7 24 0 0,0
16.07.2018 23:00:00 13,6 11,5 11,7 18,6 18,6 15,1 4 2 14 7 N 1013,2 25 0 0,0
16.07.2018 22:00:00 14,6 11,9 12,7 19,7 18,7 15,1 4 2 17 9 N 1012,9 26 0 0,0
16.07.2018 21:00:00 16,3 12,7 14,6 20,9 18,8 15,1 5 3 10 5 NNO 1011,8 28 3 0,0
16.07.2018 20:00:00 18,5 12,4 18,4 21,8 18,7 15,1 7 4 13 7 NNO 1011,1 39 47 0,0
16.07.2018 19:00:00 18,8 12,2 19,6 22,2 18,5 15,1 8 5 25 14 N 1011,6 39 6 0,0
16.07.2018 18:00:00 18,5 12,9 19,4 23,2 18,3 15,1 16 9 39 21 N 1012,2 28 0 0,0
16.07.2018 17:00:00 20,9 11,9 22,7 23,9 18,0 15,1 12 6 22 12 NNW 1011,3 52 35 0,0
16.07.2018 16:00:00 21,3 12,4 24,6 23,6 17,6 15,1 5 3 22 12 N 1011,4 45 30 0,0
16.07.2018 15:00:00 18,5 11,8 20,6 23,3 17,1 15,1 13 7 27 15 NNW 1012,7 47 10 0,0
16.07.2018 14:00:00 21,5 12,3 24,0 23,3 16,7 15,1 12 6 24 13 ZW 1012,2 41 48 0,0
16.07.2018 13:00:00 21,8 11,1 26,0 21,7 16,3 15,1 7 4 15 8 W 1012,3 42 48 0,0
16.07.2018 12:00:00 19,8 13,8 22,5 20,5 15,9 15,1 8 5 16 9 ZW 1013,5 34 19 0,0
16.07.2018 11:00:00 20,3 13,5 23,5 19,5 15,7 15,1 5 3 13 7 WZW 1013,5 39 23 0,0
16.07.2018 10:00:00 19,1 12,9 22,6 17,7 15,6 15,1 5 3 10 5 WZW 1013,8 42 50 0,0
16.07.2018 09:00:00 15,7 12,3 17,5 15,7 15,7 15,1 4 2 5 3 W 1014,8 28 45 0,0
16.07.2018 08:00:00 12,6 11,0 13,6 14,3 15,9 15,1 2 1 5 3 NW 1015,9 17 36 0,0
16.07.2018 07:00:00 10,9 10,2 11,5 14,0 16,1 15,1 0 0 6 3 N 1016,1 9 7 0,0
16.07.2018 06:00:00 10,3 9,9 9,2 14,2 16,3 15,1 3 1 4 2 WZW 1016,3 7 0 0,0
16.07.2018 05:00:00 10,4 10,1 9,2 14,6 16,6 15,1 3 2 7 4 Z 1016,5 9 0 0,0
16.07.2018 04:00:00 10,7 10,1 9,5 15,1 16,8 15,1 2 1 8 5 WZW 1017,0 7 0 0,0
16.07.2018 03:00:00 11,5 11,1 11,4 15,4 17,1 15,1 3 1 8 4 ZO 1017,3 10 0 0,0
16.07.2018 02:00:00 11,4 11,0 10,3 15,8 17,3 15,1 2 1 5 3 WZW 1017,3 8 0 0,0
16.07.2018 01:00:00 11,7 11,3 10,0 16,5 17,5 15,1 4 2 5 3 NNW 1017,2 1,3 0 0,0
16.07.2018 00:00:00 12,7 11,8 11,6 17,2 17,7 15,1 3 2 14 8 WZW 1016,6 9 0 0,0
15.07.2018 23:00:00 13,3 12,5 12,2 18,0 17,9 15,1 4 2 11 6 WNW 1016,5 11 0 0,0
15.07.2018 22:00:00 14,9 14,1 12,9 19,0 18,0 15,1 3 1 8 4 WNW 1016,2 12 0 0,0
15.07.2018 21:00:00 16,5 14,6 15,1 19,9 18,0 15,1 5 3 7 4 WNW 1015,2 15 22 0,0
15.07.2018 20:00:00 18,2 15,2 18,3 20,3 17,9 15,1 4 2 6 4 W 1014,7 25 13 0,0
15.07.2018 19:00:00 18,4 14,3 19,7 20,5 17,9 15,1 4 2 7 4 WNW 1014,8 28 21 0,0
15.07.2018 18:00:00 17,9 14,1 19,7 20,3 17,9 15,1 3 2 6 4 N 1015,5 26 0 0,0
15.07.2018 17:00:00 16,6 14,2 17,4 20,4 17,8 15,1 5 3 16 9 NW 1016,0 21 0 0,1
15.07.2018 16:00:00 16,5 13,6 16,0 20,8 17,7 15,1 4 2 25 14 W 1016,1 11 3 0,4
15.07.2018 15:00:00 18,4 13,3 20,7 21,4 17,4 15,1 9 5 24 13 NNO 1015,6 34 6 0,0
15.07.2018 14:00:00 19,9 11,4 20,7 22,2 17,0 15,1 8 5 17 9 ZZO 1015,1 30 6 0,2
15.07.2018 13:00:00 21,7 12,9 19,5 22,7 16,5 15,1 8 4 13 7 NW 1014,5 28 5 0,0
15.07.2018 12:00:00 23,4 12,8 25,4 22,4 16,1 15,1 5 3 17 9 WZW 1014,7 35 49 0,0
15.07.2018 11:00:00 22,7 10,2 25,9 20,2 15,8 15,1 6 3 11 6 WZW 1015,2 35 60 0,0
15.07.2018 10:00:00 20,8 13,4 22,9 17,8 15,7 15,1 3 2 6 3 W 1015,7 29 60 0,0
15.07.2018 09:00:00 17,1 13,0 17,9 15,5 15,8 15,1 4 2 7 4 WZW 1016,8 23 54 0,0
15.07.2018 08:00:00 13,1 11,8 13,7 14,2 16,0 15,1 3 2 10 6 ZZW 1017,7 11 35 0,0
15.07.2018 07:00:00 10,3 9,5 10,2 13,7 16,3 15,2 3 2 7 4 NO 1018,8 6 0 0,0
15.07.2018 06:00:00 10,3 9,7 9,9 13,8 16,6 15,2 5 3 9 5 OZO 1018,8 14 0 0,0
15.07.2018 05:00:00 10,0 9,4 8,4 14,3 16,9 15,2 3 2 8 4 OZO 1018,7 9 0 0,0
15.07.2018 04:00:00 10,3 9,8 9,5 14,8 17,2 15,2 6 4 11 6 O 1019,0 9 0 0,0
15.07.2018 03:00:00 10,7 10,2 9,2 15,4 17,5 15,2 3 2 6 3 Z 1019,0 7 0 0,0
15.07.2018 02:00:00 11,0 10,4 9,3 16,1 17,8 15,2 3 1 9 5 ONO 1019,2 8 0 0,0
15.07.2018 01:00:00 11,6 11,0 10,3 16,8 18,1 15,2 4 2 8 4 ZO 1019,2 6 0 0,0
15.07.2018 00:00:00 12,6 12,0 11,1 17,7 18,4 15,2 4 2 8 5 ZO 1018,9 8 0 0,0
14.07.2018 23:00:00 13,1 12,6 12,0 18,6 18,6 15,2 3 2 5 3 O 1018,4 1,6 0 0,0
14.07.2018 22:00:00 14,5 14,0 12,6 19,7 18,7 15,2 2 1 8 4 N 1018,0 2,4 0 0,0
14.07.2018 21:00:00 16,3 14,8 15,3 20,7 18,8 15,2 6 3 9 5 O 1017,0 16 39 0,0
14.07.2018 20:00:00 18,2 14,6 19,5 21,2 18,8 15,2 3 2 9 5 O 1016,7 26 23 0,0
14.07.2018 19:00:00 17,2 14,8 18,8 21,5 18,8 15,2 4 2 13 7 OZO 1017,1 20 1 0,0
14.07.2018 18:00:00 16,7 14,2 18,0 21,8 18,8 15,2 4 2 18 10 NO 1017,8 21 2 0,1
14.07.2018 17:00:00 15,7 13,8 16,1 22,8 18,6 15,2 6 3 34 18 N 1018,4 14 0 5,0
14.07.2018 16:00:00 22,1 11,5 22,0 24,7 18,2 15,2 8 5 24 13 W 1016,6 36 18 0,0
14.07.2018 15:00:00 22,4 11,3 23,0 25,0 17,7 15,2 16 9 28 15 NNW 1016,3 29 3 0,0
14.07.2018 14:00:00 24,5 10,8 27,6 25,2 17,1 15,2 6 3 21 11 NNW 1016,0 38 39 0,0
14.07.2018 13:00:00 24,2 9,6 29,5 23,6 16,6 15,2 9 5 21 11 NNO 1016,6 38 45 0,0
14.07.2018 12:00:00 23,6 9,3 27,4 22,2 16,2 15,2 9 5 18 10 N 1017,2 37 43 0,0
14.07.2018 11:00:00 23,6 11,5 26,8 20,3 15,9 15,2 5 3 12 7 WZW 1017,3 32 60 0,0
14.07.2018 10:00:00 21,4 12,8 23,9 18,1 15,8 15,2 4 2 5 3 W 1017,8 39 60 0,0
14.07.2018 09:00:00 18,0 13,0 21,2 16,0 15,9 15,2 3 1 4 2 W 1018,8 41 60 0,0
14.07.2018 08:00:00 14,4 11,1 14,5 14,4 16,1 15,2 3 2 4 2 WZW 1019,9 26 31 0,0
14.07.2018 07:00:00 10,7 9,2 10,7 13,9 16,4 15,2 0 0 4 2 N 1020,9 15 22 0,0
14.07.2018 06:00:00 9,4 8,8 8,2 14,1 16,7 15,2 3 1 8 4 O 1021,1 12 0 0,0
14.07.2018 05:00:00 9,7 9,1 7,8 14,7 17,0 15,2 2 1 5 3 N 1021,0 26 0 0,0
14.07.2018 04:00:00 10,2 9,5 8,0 15,4 17,3 15,2 2 1 4 2 ZW 1020,8 15 0 0,0
14.07.2018 03:00:00 11,0 10,0 9,7 16,0 17,6 15,2 3 2 4 2 ZO 1020,7 16 0 0,0
14.07.2018 02:00:00 11,7 10,5 9,5 16,6 17,9 15,2 3 1 7 4 ZZW 1020,8 24 0 0,0
14.07.2018 01:00:00 12,0 10,6 9,7 17,4 18,1 15,2 2 1 10 5 N 1020,7 21 0 0,0
14.07.2018 00:00:00 14,2 11,6 12,5 18,3 18,3 15,2 9 5 15 8 NO 1020,1 32 0 0,0
13.07.2018 23:00:00 14,8 11,5 12,4 19,3 18,5 15,2 5 3 13 7 NNO 1019,8 27 0 0,0
13.07.2018 22:00:00 16,6 12,2 14,9 20,4 18,5 15,2 5 3 12 7 N 1019,2 33 0 0,0
13.07.2018 21:00:00 18,5 11,7 16,9 21,4 18,5 15,2 6 3 25 14 O 1018,1 37 2 0,0
13.07.2018 20:00:00 20,4 12,0 20,0 22,6 18,3 15,2 15 8 26 14 N 1017,3 34 16 0,0
13.07.2018 19:00:00 22,4 12,6 22,8 23,3 18,0 15,3 7 4 14 8 N 1016,6 46 19 0,0
13.07.2018 18:00:00 22,4 11,7 24,0 23,6 17,7 15,3 7 4 20 11 NNO 1016,9 46 36 0,0
13.07.2018 17:00:00 23,7 11,6 27,0 23,0 17,4 15,3 14 8 22 12 ZW 1016,7 36 53 0,0
13.07.2018 16:00:00 22,9 12,2 25,5 22,1 17,1 15,3 5 3 12 7 NW 1017,2 47 8 0,0
13.07.2018 15:00:00 21,7 11,4 22,3 22,3 16,7 15,3 5 3 14 8 NNW 1017,5 50 0 0,0

tt = temperatuur
td = dauwpunt
tt 5cm = temperatuur 5cm
tt -5cm = temperatuur -5cm
tt -20cm = temperatuur -20cm
tt -100cm = temperatuur -100cm
ff = windsnelheid
fx = windstoten
dd = windrichting
ppp = luchtdruk
vv = zicht
sd = Zonneschijnduur
rr = neerslag

Weerstations in de omgeving